Location: Burland Observatory
(39.4088°N, 105.4217°W)
Time: 17:07:18
(UTC-07:00)

Explorer 7 - Pass Details

Date: 12 December 2019
Orbit: 485 x 679 km, 50.3° (Epoch: 21 January)

Event Time Altitude Azimuth Distance (km) Brightness Sun altitude
Rises 17:42:32 0° 290° (WNW) 3,014 11.4 -12.1°
Reaches altitude 10° 17:45:22 10° 306° (NW) 2,110 10.3 -12.6°
Maximum altitude 17:49:12 22° 357° (N) 1,452 8.8 -13.3°
Enters shadow 17:51:47 15° 37° (NE) 1,776 8.9 -13.7°
